Regional Weather Roundup
Issued by NWS

Home | Current Version | Previous Version | Graphics & Text | Print | Product List | Glossary On
Versions: 1 2 3 4 5 6 7 8 9 10 11 12 13 14 15 16 17 18 19 20 21 22 23 24 25 26 27 28 29 30 31 32 33 34 35 36 37 38 39 40 41 42 43 44 45 46 47 48 49 50
000
ASUS45 KSLC 270510
RWRUT

UTAH REGIONAL WEATHER ROUNDUP
NATIONAL WEATHER SERVICE SALT LAKE CITY UT
1100 PM MDT THU MAR 26 2015

UTZ001>011-023>025-270600-

NORTHERN UTAH

CITY           SKY/WX    TMP DP  RH WIND       PRES   REMARKS
BRIGHAM CITY   PTCLDY    47  35  60 CALM      30.35S
HILL AFB       CLEAR     46  27  47 E9        30.34F
LOGAN          CLEAR     48  33  56 S3        30.35R
OGDEN          CLEAR     46  28  49 S7        30.33F
PROVO AIRPORT  CLEAR     46  30  53 N6        30.35S
SALT LAKE CITY PTCLDY    48  32  53 SE5       30.34R
VERNAL         CLEAR     43  24  47 SW8       30.28R
WENDOVER       CLEAR     50  27  40 W7        30.34R
HEBER CITY     CLEAR     36  27  69 E5        30.36R WCI  32
WEST JORDAN    CLEAR     45  30  57 CALM      30.36R

$$

UTZ012>022-026-027-270600-

SOUTHERN/CENTRAL UTAH

CITY           SKY/WX    TMP DP  RH WIND       PRES   REMARKS
BLANDING       CLEAR     43  20  41 N8        30.37S
BRYCE CANYON   CLEAR     34  26  72 W7        30.42R WCI  28
CEDAR CITY     CLEAR     40  23  50 CALM      30.34R
DELTA          CLEAR     45  29  55 CALM      30.33S
HANKSVILLE     CLEAR     45  16  31 CALM      30.28R
MILFORD        CLEAR     41  21  44 NW6       30.34R
MOAB/CYNLANDS  CLEAR     45  15  30 SW5       30.24S
PRICE          CLEAR     53  20  27 CALM      30.30R
ST GEORGE      CLEAR     63  27  25 NW5       30.23R
KANAB          CLEAR     45  25  45 NE6       30.34R

$$

REGIONAL REPORTS     COLORADO/ARIZONA

CITY           SKY/WX    TMP DP  RH WIND       PRES   REMARKS
CRAIG, CO      PTCLDY    43  26  51 SW8       30.32R
GRAND JUNCTION CLEAR     40  18  41 CALM      30.28R
RIFLE          PTCLDY    42  25  50 VRB5      30.30R
MONTROSE       CLEAR     42  24  49 SE9       30.34R
CORTEZ         CLEAR     36  17  46 E3        30.32R
PAGE, AZ       CLEAR     56  21  25 CALM      30.27R
GRAND CANYON   CLEAR     31  17  56 NE3       30.37R
KINGMAN        CLEAR     52  23  32 SE13      30.22R
FLAGSTAFF      CLEAR     34  15  46 CALM      30.38R

$$

REGIONAL REPORTS    NEVADA/IDAHO/WYOMING

CITY           SKY/WX    TMP DP  RH WIND       PRES   REMARKS
LAS VEGAS, NV  CLEAR     69  28  21 W7        30.12S
ELY            CLEAR     45  22  40 S7        30.36R
ELKO           CLEAR     48  30  49 E6        30.30S
POCATELLO, ID  CLEAR     45  33  63 SW6       30.33R
BURLEY         CLEAR     41  34  76 SE3       30.30R
EVANSTON, WY   PTCLDY    41  27  57 SW3       30.40R
ROCK SPRINGS   PTCLDY    41  29  62 W14       30.32S
KEMMERER       PTCLDY    36  30  80 NW7       30.40R WCI  30

$$



USA.gov is the U.S. government's official web portal to all federal, state and local government web resources and services.